Tiempo cada hora Murwara

Hoy, 25 Octubre, Domingo

Tiempo Temperatura Precipitaciones Viento Presión Humedad
00:00 +23°C° 0 mm 1 mps 726 mmHg 52%
01:00 +23°C° 0 mm 1 mps 725 mmHg 53%
02:00 +22°C° 0 mm 1 mps 725 mmHg 53%
03:00 +22°C° 0 mm 1 mps 725 mmHg 55%
04:00 +22°C° 0 mm 1 mps 725 mmHg 56%
05:00 +21°C° 0 mm 1 mps 726 mmHg 57%
06:00 +23°C° 0 mm 1 mps 726 mmHg 55%
07:00 +24°C° 0 mm 1 mps 727 mmHg 53%
08:00 +26°C° 0 mm 1 mps 727 mmHg 52%
09:00 +28°C° 0 mm 1 mps 727 mmHg 48%
10:00 +29°C° 0 mm 1 mps 727 mmHg 44%
11:00 +31°C° 0 mm 2 mps 727 mmHg 41%
12:00 +32°C° 0 mm 1 mps 726 mmHg 39%
13:00 +32°C° 0 mm 1 mps 726 mmHg 36%
14:00 +33°C° 0 mm 1 mps 725 mmHg 34%
15:00 +31°C° 0 mm 1 mps 725 mmHg 38%
16:00 +29°C° 0 mm 1 mps 725 mmHg 42%
17:00 +27°C° 0 mm 1 mps 725 mmHg 46%
18:00 +27°C° 0 mm 1 mps 725 mmHg 46%
19:00 +26°C° 0 mm 1 mps 726 mmHg 47%
20:00 +25°C° 0 mm 2 mps 726 mmHg 47%
21:00 +25°C° 0 mm 1 mps 726 mmHg 48%
22:00 +24°C° 0 mm 1 mps 726 mmHg 50%
23:00 +24°C° 0 mm 1 mps 726 mmHg 52%

Mañana, 26 Octubre, Lunes

Tiempo Temperatura Precipitaciones Viento Presión Humedad
00:00 +23°C° 0 mm 1 mps 726 mmHg 53%
01:00 +23°C° 0 mm 1 mps 726 mmHg 54%
02:00 +22°C° 0 mm 1 mps 726 mmHg 55%
03:00 +22°C° 0 mm 1 mps 726 mmHg 56%
04:00 +22°C° 0 mm 1 mps 726 mmHg 57%
05:00 +22°C° 0 mm 1 mps 726 mmHg 58%
06:00 +23°C° 0 mm 1 mps 727 mmHg 57%
07:00 +25°C° 0 mm 1 mps 727 mmHg 55%
08:00 +26°C° 0 mm 1 mps 728 mmHg 53%
09:00 +28°C° 0 mm 2 mps 728 mmHg 50%
10:00 +29°C° 0 mm 2 mps 728 mmHg 47%
11:00 +31°C° 0 mm 2 mps 728 mmHg 44%
12:00 +32°C° 0 mm 2 mps 727 mmHg 40%
13:00 +32°C° 0 mm 1 mps 726 mmHg 37%
14:00 +33°C° 0 mm 1 mps 725 mmHg 33%
15:00 +31°C° 0 mm 1 mps 725 mmHg 36%
16:00 +29°C° 0 mm 1 mps 725 mmHg 40%
17:00 +25°C° 0 mm 0 mps 725 mmHg 43%
18:00 +25°C° 0 mm 0 mps 725 mmHg 44%
19:00 +26°C° 0 mm 1 mps 726 mmHg 46%
20:00 +25°C° 0 mm 1 mps 726 mmHg 47%
21:00 +24°C° 0 mm 1 mps 726 mmHg 48%
22:00 +24°C° 0 mm 1 mps 726 mmHg 49%
23:00 +23°C° 0 mm 1 mps 726 mmHg 50%

Pasado mañana, 27 Octubre, Martes

Tiempo Temperatura Precipitaciones Viento Presión Humedad
00:00 +23°C° 0 mm 1 mps 726 mmHg 52%
01:00 +23°C° 0 mm 1 mps 725 mmHg 53%
02:00 +22°C° 0 mm 1 mps 725 mmHg 54%
03:00 +22°C° 0 mm 1 mps 725 mmHg 55%
04:00 +21°C° 0 mm 1 mps 725 mmHg 56%
05:00 +21°C° 0 mm 1 mps 725 mmHg 57%
06:00 +23°C° 0 mm 1 mps 726 mmHg 56%
07:00 +24°C° 0 mm 2 mps 726 mmHg 55%
08:00 +26°C° 0 mm 2 mps 727 mmHg 54%
09:00 +28°C° 0 mm 2 mps 727 mmHg 50%
10:00 +30°C° 0 mm 2 mps 727 mmHg 45%
11:00 +31°C° 0 mm 3 mps 727 mmHg 40%
12:00 +32°C° 0 mm 2 mps 726 mmHg 36%
13:00 +32°C° 0 mm 2 mps 726 mmHg 31%
14:00 +33°C° 0 mm 1 mps 725 mmHg 26%
15:00 +31°C° 0 mm 1 mps 725 mmHg 30%
16:00 +29°C° 0 mm 1 mps 725 mmHg 34%
17:00 +27°C° 0 mm 1 mps 725 mmHg 38%
18:00 +26°C° 0 mm 1 mps 725 mmHg 39%
19:00 +25°C° 0 mm 1 mps 726 mmHg 40%
20:00 +24°C° 0 mm 1 mps 726 mmHg 41%
21:00 +23°C° 0 mm 1 mps 726 mmHg 42%
22:00 +23°C° 0 mm 1 mps 726 mmHg 43%
23:00 +23°C° 0 mm 1 mps 726 mmHg 44%

28 Octubre, Miércoles

Tiempo Temperatura Precipitaciones Viento Presión Humedad
00:00 +22°C° 0 mm 1 mps 726 mmHg 46%
01:00 +22°C° 0 mm 1 mps 725 mmHg 47%
02:00 +21°C° 0 mm 1 mps 725 mmHg 48%
03:00 +21°C° 0 mm 1 mps 725 mmHg 50%
04:00 +20°C° 0 mm 1 mps 725 mmHg 51%
05:00 +20°C° 0 mm 1 mps 725 mmHg 53%
06:00 +22°C° 0 mm 1 mps 726 mmHg 53%
07:00 +23°C° 0 mm 2 mps 727 mmHg 52%
08:00 +25°C° 0 mm 2 mps 727 mmHg 52%
09:00 +27°C° 0 mm 2 mps 727 mmHg 47%
10:00 +29°C° 0 mm 2 mps 727 mmHg 42%
11:00 +31°C° 0 mm 2 mps 727 mmHg 37%
12:00 +31°C° 0 mm 2 mps 727 mmHg 33%
13:00 +32°C° 0 mm 2 mps 726 mmHg 28%
14:00 +32°C° 0 mm 2 mps 726 mmHg 24%
15:00 +30°C° 0 mm 1 mps 726 mmHg 28%
16:00 +28°C° 0 mm 1 mps 725 mmHg 31%
17:00 +26°C° 0 mm 1 mps 725 mmHg 35%
18:00 +25°C° 0 mm 1 mps 726 mmHg 35%
19:00 +24°C° 0 mm 1 mps 726 mmHg 35%
20:00 +21°C° 0 mm 0 mps 726 mmHg 35%
21:00 +20°C° 0 mm 0 mps 726 mmHg 36%
22:00 +20°C° 0 mm 0 mps 726 mmHg 36%
23:00 +19°C° 0 mm 0 mps 726 mmHg 37%

29 Octubre, Jueves

Tiempo Temperatura Precipitaciones Viento Presión Humedad
00:00 +19°C° 0 mm 0 mps 726 mmHg 37%
01:00 +19°C° 0 mm 0 mps 726 mmHg 38%
02:00 +18°C° 0 mm 0 mps 726 mmHg 38%
03:00 +18°C° 0 mm 0 mps 726 mmHg 39%
04:00 +17°C° 0 mm 0 mps 726 mmHg 40%
05:00 +17°C° 0 mm 0 mps 726 mmHg 40%
06:00 +21°C° 0 mm 1 mps 727 mmHg 40%
07:00 +23°C° 0 mm 1 mps 728 mmHg 40%
08:00 +24°C° 0 mm 1 mps 728 mmHg 39%
09:00 +27°C° 0 mm 1 mps 728 mmHg 36%
10:00 +29°C° 0 mm 1 mps 728 mmHg 32%
11:00 +31°C° 0 mm 1 mps 728 mmHg 28%
12:00 +31°C° 0 mm 1 mps 727 mmHg 26%
13:00 +31°C° 0 mm 1 mps 727 mmHg 23%
14:00 +32°C° 0 mm 1 mps 726 mmHg 21%
15:00 +29°C° 0 mm 1 mps 726 mmHg 25%
16:00 +27°C° 0 mm 1 mps 726 mmHg 29%
17:00 +23°C° 0 mm 0 mps 726 mmHg 32%
18:00 +22°C° 0 mm 0 mps 726 mmHg 33%
19:00 +21°C° 0 mm 0 mps 726 mmHg 33%
20:00 +20°C° 0 mm 0 mps 727 mmHg 34%
21:00 +22°C° 0 mm 1 mps 727 mmHg 35%
22:00 +21°C° 0 mm 1 mps 726 mmHg 36%
23:00 +21°C° 0 mm 1 mps 726 mmHg 36%

30 Octubre, Viernes

Tiempo Temperatura Precipitaciones Viento Presión Humedad
00:00 +20°C° 0 mm 1 mps 726 mmHg 37%
01:00 +20°C° 0 mm 1 mps 726 mmHg 39%
02:00 +20°C° 0 mm 1 mps 726 mmHg 40%
03:00 +19°C° 0 mm 1 mps 726 mmHg 40%
04:00 +19°C° 0 mm 1 mps 726 mmHg 41%
05:00 +19°C° 0 mm 1 mps 726 mmHg 41%
06:00 +20°C° 0 mm 1 mps 726 mmHg 42%
07:00 +22°C° 0 mm 1 mps 727 mmHg 42%
08:00 +24°C° 0 mm 2 mps 727 mmHg 43%
09:00 +26°C° 0 mm 2 mps 727 mmHg 39%
10:00 +28°C° 0 mm 2 mps 727 mmHg 35%
11:00 +30°C° 0 mm 2 mps 727 mmHg 31%
12:00 +30°C° 0 mm 2 mps 726 mmHg 29%
13:00 +31°C° 0 mm 2 mps 726 mmHg 26%
14:00 +31°C° 0 mm 2 mps 725 mmHg 24%
15:00 +29°C° 0 mm 1 mps 725 mmHg 28%
16:00 +27°C° 0 mm 1 mps 725 mmHg 31%
17:00 +23°C° 0 mm 0 mps 724 mmHg 34%
18:00 +22°C° 0 mm 0 mps 725 mmHg 35%
19:00 +21°C° 0 mm 0 mps 725 mmHg 37%
20:00 +20°C° 0 mm 0 mps 725 mmHg 38%
21:00 +22°C° 0 mm 1 mps 725 mmHg 39%
22:00 +21°C° 0 mm 1 mps 725 mmHg 41%
23:00 +21°C° 0 mm 1 mps 725 mmHg 43%
Mostrar más

Necesitamos Su Consentimiento

Meteoprog y nuestros Proveedores de Servicios pueden almacenar y acceder a sus datos personales como cookies, identificadores de dispositivo u otras tecnologías similares de su dispositivo y procesar dichos datos para personalizar contenido y anuncios, además de ofrecer funciones de redes sociales y analizar el tráfico.

  • Almacenar y/o acceder a información en su dispositivo

    Se puede almacenar o acceder a cookies, identificadores de dispositivo u otra información de su dispositivo para los fines anteriormente indicados.

  • Anuncios y contenido personalizados, medición de anuncios y contenido, percepciones del público, y desarrollo de productos

    Los anuncios y el contenido pueden personalizarse en base a su perfil. Se pueden añadir más datos para personalizar mejor los anuncios y contenidos. Se puede medir el rendimiento de los anuncios y contenidos. Se puede obtener la percepción sobre el público que ha visto los anuncios y contenidos. Dichos datos pueden usarse para desarrollar o mejorar la experiencia del usuario, sistemas y software.

Al hacer clic en ‘Estoy De Acuerdo’ usted permitirá el uso de las cookies, identificadores de dispositivo, balizas web u otras tecnologías similares indicadas. Su configuración puede cambiarse desde el navegador de su dispositivo.

Para ciertos fines, los intereses legítimos pueden ser considerados por encima del consentimiento. Puede leer más sobre ello en nuestra Política de Privacidad y Cookies.